| time (UTC) | temp C | wind direction | speed KPH | gust KPH | rain 1hr cm | rain 24hr cm | rain mn cm | humidity % | barometer mb |
| 20260831004557 | 25 | 21 | 0.0 | 0.0 | 0.00 | 0.00 | 0.00 | 79 | 1017.2 |
| 20260831003053 | 26 | 65 | 0.0 | 0.0 | 0.00 | 0.00 | 0.00 | 76 | 1017.0 |
| 20260831001549 | 26 | 174 | 3.2 | 9.7 | 0.00 | 0.00 | 0.00 | 75 | 1016.7 |
| 20260831000055 | 26 | 192 | 4.8 | 9.7 | 0.00 | 0.00 | 0.00 | 76 | 1016.5 |
| 20260830234551 | 26 | 134 | 0.0 | 0.0 | 0.00 | 0.00 | 0.00 | 74 | 1016.6 |
| 20260830233051 | 26 | 294 | 0.0 | 22.5 | 0.00 | 0.00 | 0.00 | 73 | 1017.0 |
| 20260830231554 | 27 | 268 | 14.5 | 27.4 | 0.00 | 0.00 | 0.00 | 69 | 1017.3 |
| 20260830230050 | 28 | 293 | 20.9 | 33.8 | 0.00 | 0.00 | 0.00 | 66 | 1017.4 |
| 20260830224543 | 30 | 232 | 6.4 | 12.9 | 0.00 | 0.00 | 0.00 | 66 | 1017.2 |
| 20260830223055 | 30 | 202 | 8.0 | 16.1 | 0.00 | 0.00 | 0.00 | 65 | 1016.8 |
| 20260830221550 | 30 | 203 | 8.0 | 20.9 | 0.00 | 0.00 | 0.00 | 65 | 1016.7 |
| 20260830220058 | 30 | 207 | 9.7 | 16.1 | 0.00 | 0.00 | 0.00 | 64 | 1016.6 |
| 20260830214547 | 30 | 220 | 9.7 | 24.1 | 0.00 | 0.00 | 0.00 | 63 | 1016.6 |
| 20260830213052 | 30 | 196 | 9.7 | 19.3 | 0.00 | 0.00 | 0.00 | 63 | 1016.5 |
| 20260830211559 | 31 | 155 | 11.3 | 20.9 | 0.00 | 0.00 | 0.00 | 62 | 1016.7 |
| 20260830210050 | 31 | 238 | 11.3 | 22.5 | 0.00 | 0.00 | 0.00 | 62 | 1016.6 |
| 20260830204555 | 31 | 169 | 11.3 | 24.1 | 0.00 | 0.00 | 0.00 | 62 | 1016.4 |
| 20260830203052 | 31 | 194 | 8.0 | 17.7 | 0.00 | 0.00 | 0.00 | 62 | 1016.7 |
| 20260830201551 | 31 | 143 | 9.7 | 17.7 | 0.00 | 0.00 | 0.00 | 61 | 1016.9 |
| 20260830200053 | 31 | 252 | 9.7 | 19.3 | 0.00 | 0.00 | 0.00 | 62 | 1017.0 |
| 20260830194603 | 30 | 176 | 12.9 | 24.1 | 0.00 | 0.00 | 0.00 | 62 | 1017.1 |
| 20260830193055 | 30 | 146 | 8.0 | 22.5 | 0.00 | 0.00 | 0.00 | 63 | 1017.2 |
| 20260830191559 | 30 | 217 | 12.9 | 27.4 | 0.00 | 0.00 | 0.00 | 63 | 1017.3 |
| 20260830190117 | 30 | 236 | 14.5 | 20.9 | 0.00 | 0.00 | 0.00 | 64 | 1017.7 |
| 20260830184549 | 30 | 154 | 9.7 | 20.9 | 0.00 | 0.00 | 0.00 | 64 | 1018.1 |
| 20260830183052 | 30 | 221 | 6.4 | 25.7 | 0.00 | 0.00 | 0.00 | 65 | 1018.4 |
| 20260830181552 | 29 | 309 | 4.8 | 19.3 | 0.00 | 0.00 | 0.00 | 67 | 1018.7 |
| 20260830180117 | 29 | 265 | 9.7 | 17.7 | 0.00 | 0.00 | 0.00 | 66 | 1018.9 |
| 20260830174610 | 28 | 227 | 14.5 | 22.5 | 0.00 | 0.00 | 0.00 | 68 | 1019.3 |
| 20260830173116 | 28 | 206 | 11.3 | 17.7 | 0.00 | 0.00 | 0.00 | 68 | 1019.6 |
| 20260830171602 | 28 | 264 | 8.0 | 20.9 | 0.00 | 0.00 | 0.00 | 71 | 1019.6 |
| 20260830170106 | 27 | 240 | 14.5 | 24.1 | 0.00 | 0.00 | 0.00 | 71 | 1019.9 |
| 20260830164553 | 27 | 213 | 4.8 | 20.9 | 0.00 | 0.00 | 0.00 | 72 | 1020.1 |
| 20260830163107 | 27 | 231 | 11.3 | 20.9 | 0.00 | 0.00 | 0.00 | 73 | 1020.2 |
| 20260830161603 | 27 | 201 | 12.9 | 22.5 | 0.00 | 0.00 | 0.00 | 72 | 1020.2 |
| 20260830160107 | 27 | 192 | 17.7 | 29.0 | 0.00 | 0.00 | 0.00 | 72 | 1020.4 |
| 20260830154555 | 26 | 160 | 19.3 | 24.1 | 0.00 | 0.00 | 0.00 | 75 | 1020.5 |
| 20260830153054 | 27 | 267 | 9.7 | 24.1 | 0.00 | 0.00 | 0.00 | 74 | 1020.6 |
| 20260830151607 | 26 | 179 | 6.4 | 29.0 | 0.00 | 0.00 | 0.00 | 77 | 1020.6 |
| 20260830150115 | 26 | 202 | 11.3 | 22.5 | 0.00 | 0.00 | 0.00 | 76 | 1020.7 |
| 20260830143053 | 25 | 229 | 12.9 | 20.9 | 0.00 | 0.00 | 0.00 | 81 | 1020.2 |
| 20260830141547 | 25 | 159 | 9.7 | 19.3 | 0.00 | 0.00 | 0.00 | 83 | 1020.6 |
| 20260830140054 | 25 | 237 | 8.0 | 19.3 | 0.00 | 0.00 | 0.00 | 85 | 1020.6 |
| 20260830134555 | 24 | 202 | 11.3 | 22.5 | 0.00 | 0.00 | 0.00 | 85 | 1020.3 |
| 20260830133052 | 23 | 219 | 6.4 | 19.3 | 0.00 | 0.00 | 0.00 | 88 | 1020.6 |
| 20260830131557 | 23 | 182 | 8.0 | 17.7 | 0.00 | 0.00 | 0.00 | 89 | 1020.6 |
| 20260830130059 | 23 | 194 | 9.7 | 17.7 | 0.00 | 0.00 | 0.00 | 91 | 1020.7 |
| 20260830124552 | 22 | 180 | 4.8 | 16.1 | 0.00 | 0.00 | 0.00 | 93 | 1021.1 |
| 20260830123049 | 22 | 137 | 6.4 | 11.3 | 0.00 | 0.00 | 0.00 | 93 | 1020.9 |
| 20260830121554 | 21 | 146 | 4.8 | 12.9 | 0.00 | 0.00 | 0.00 | 93 | 1021.1 |
| 20260830120053 | 21 | 119 | 4.8 | 11.3 | 0.00 | 0.00 | 0.00 | 94 | 1021.2 |
| 20260830114557 | 21 | 188 | 3.2 | 6.4 | 0.00 | 0.00 | 0.00 | 94 | 1021.1 |
| 20260830113045 | 21 | 185 | 0.0 | 4.8 | 0.00 | 0.00 | 0.00 | 94 | 1020.8 |
| 20260830111541 | 21 | 181 | 0.0 | 1.6 | 0.00 | 0.00 | 0.00 | 93 | 1020.7 |
| 20260830110051 | 21 | 157 | 3.2 | 9.7 | 0.00 | 0.00 | 0.00 | 94 | 1020.7 |
| 20260830104550 | 21 | 162 | 3.2 | 9.7 | 0.00 | 0.00 | 0.00 | 94 | 1020.6 |
| 20260830103045 | 21 | 189 | 0.0 | 3.2 | 0.00 | 0.00 | 0.00 | 94 | 1020.6 |
| 20260830101556 | 21 | 177 | 3.2 | 6.4 | 0.00 | 0.00 | 0.00 | 93 | 1020.6 |
| 20260830100052 | 21 | 182 | 1.6 | 6.4 | 0.00 | 0.00 | 0.00 | 93 | 1020.4 |
| 20260830094548 | 21 | 188 | 4.8 | 12.9 | 0.00 | 0.00 | 0.00 | 93 | 1020.4 |
| 20260830093043 | 21 | 161 | 3.2 | 9.7 | 0.00 | 0.00 | 0.00 | 93 | 1020.3 |
| 20260830091553 | 21 | 186 | 8.0 | 16.1 | 0.00 | 0.00 | 0.00 | 92 | 1020.4 |
| 20260830090052 | 21 | 174 | 3.2 | 8.0 | 0.00 | 0.00 | 0.00 | 92 | 1020.3 |
| 20260830084552 | 21 | 196 | 0.0 | 6.4 | 0.00 | 0.00 | 0.00 | 91 | 1020.2 |
| 20260830083053 | 21 | 172 | 3.2 | 8.0 | 0.00 | 0.00 | 0.00 | 91 | 1020.2 |
| 20260830081545 | 21 | 193 | 0.0 | 6.4 | 0.00 | 0.00 | 0.00 | 91 | 1020.2 |
| 20260830080058 | 21 | 144 | 0.0 | 0.0 | 0.00 | 0.00 | 0.00 | 91 | 1020.3 |
| 20260830074555 | 21 | 195 | 3.2 | 6.4 | 0.00 | 0.00 | 0.00 | 90 | 1020.5 |
| 20260830073051 | 21 | 170 | 1.6 | 6.4 | 0.00 | 0.00 | 0.00 | 90 | 1020.4 |
| 20260830071547 | 21 | 156 | 1.6 | 4.8 | 0.00 | 0.00 | 0.00 | 89 | 1020.5 |
| 20260830070055 | 21 | 169 | 0.0 | 0.0 | 0.00 | 0.00 | 0.00 | 88 | 1020.6 |
| 20260830064606 | 21 | 115 | 0.0 | 0.0 | 0.00 | 0.00 | 0.00 | 88 | 1020.5 |
| 20260830063059 | 21 | 153 | 3.2 | 6.4 | 0.00 | 0.00 | 0.00 | 88 | 1020.7 |
| 20260830061559 | 21 | 167 | 3.2 | 8.0 | 0.00 | 0.00 | 0.00 | 87 | 1020.7 |
| 20260830060124 | 21 | 181 | 4.8 | 6.4 | 0.00 | 0.00 | 0.00 | 87 | 1020.8 |
| 20260830054558 | 21 | 150 | 4.8 | 9.7 | 0.00 | 0.00 | 0.00 | 86 | 1020.9 |
| 20260830053039 | 22 | 153 | 4.8 | 9.7 | 0.00 | 0.00 | 0.00 | 85 | 1020.9 |
| 20260830051541 | 22 | 169 | 3.2 | 6.4 | 0.00 | 0.00 | 0.00 | 83 | 1021.0 |
| 20260830050045 | 22 | 178 | 0.0 | 9.7 | 0.00 | 0.00 | 0.00 | 82 | 1021.0 |
| 20260830044543 | 22 | 159 | 0.0 | 6.4 | 0.00 | 0.00 | 0.00 | 81 | 1021.1 |
| 20260830043039 | 22 | 132 | 0.0 | 0.0 | 0.00 | 0.00 | 0.00 | 81 | 1021.2 |
| 20260830041541 | 22 | 136 | 0.0 | 0.0 | 0.00 | 0.00 | 0.00 | 82 | 1021.1 |
| 20260830040054 | 22 | 142 | 0.0 | 0.0 | 0.00 | 0.00 | 0.00 | 82 | 1020.8 |
| 20260830034536 | 22 | 5 | 0.0 | 0.0 | 0.00 | 0.00 | 0.00 | 81 | 1020.8 |
| 20260830033046 | 23 | 69 | 0.0 | 0.0 | 0.00 | 0.00 | 0.00 | 79 | 1020.8 |
| 20260830031540 | 23 | 141 | 0.0 | 0.0 | 0.00 | 0.00 | 0.00 | 77 | 1020.6 |
| 20260830030038 | 23 | 130 | 0.0 | 0.0 | 0.00 | 0.00 | 0.00 | 76 | 1020.8 |
| 20260830024539 | 24 | 113 | 0.0 | 0.0 | 0.00 | 0.00 | 0.00 | 74 | 1020.6 |
| 20260830023044 | 24 | 138 | 0.0 | 0.0 | 0.00 | 0.00 | 0.00 | 72 | 1020.8 |
| 20260830021539 | 24 | 110 | 0.0 | 0.0 | 0.00 | 0.00 | 0.00 | 72 | 1020.8 |
| 20260830020039 | 24 | 121 | 0.0 | 0.0 | 0.00 | 0.00 | 0.00 | 71 | 1020.8 |
| 20260830014545 | 25 | 155 | 0.0 | 4.8 | 0.00 | 0.00 | 0.00 | 70 | 1020.6 |
| 20260830013041 | 25 | 128 | 3.2 | 6.4 | 0.00 | 0.00 | 0.00 | 70 | 1020.4 |
| 20260830011544 | 25 | 126 | 4.8 | 8.0 | 0.00 | 0.00 | 0.00 | 70 | 1020.3 |
| 20260830010046 | 25 | 150 | 0.0 | 11.3 | 0.00 | 0.00 | 0.00 | 69 | 1020.1 |